Temp
16 16 16 17 17 17 17 18 18 19 19 19 20 21 21 22 22 23 24 27 26 26 25 25 25 25 23 23 24 23 21 23 25 25 27 27 25 24 24 22 23 23 22 22 21
15 16 16 17 17 17 18 18 18 18 19 19 20 20 20 21 22 24 26 26 26 25 25 25 26 24 24 25 25 23 20 24 28 28 27 28 26 26 24 23 22 21 21 21 21
15 15 16 16 17 17 18 18 18 18 19 19 20 20 20 20 21 26 26 26 26 25 24 25 25 25 24 26 27 27 25 27 29 30 29 28 27 26 24 23 22 21 21 21 21
15 15 16 16 17 17 17 18 18 18 18 19 20 20 20 20 21 25 25 25 25 25 24 24 25 25 25 25 28 26 28 29 29 30 29 28 27 25 25 23 24 23 22 21 21
14 15 15 16 17 17 18 18 18 18 18 19 19 19 19 19 23 26 25 25 25 25 24 24 24 25 25 26 28 27 28 29 31 31 31 29 28 26 25 23 23 22 21 21 21
14 15 15 16 16 17 18 18 18 18 18 18 18 18 17 15 25 24 24 25 25 25 25 24 24 26 25 26 26 29 29 29 31 30 31 29 27 27 24 23 22 22 21 21 22
13 14 15 15 16 17 18 18 18 18 19 18 18 17 17 23 24 24 23 23 24 25 25 25 26 25 26 26 29 29 27 28 30 30 29 29 25 25 23 23 23 22 22 22 22
13 14 14 15 16 16 18 18 18 19 19 19 18 17 18 24 23 24 24 24 24 24 24 26 26 25 25 27 28 27 26 26 29 29 29 28 24 25 23 23 23 23 23 23 23
12 13 14 15 15 16 16 17 18 19 19 18 18 16 17 23 24 24 25 25 25 25 25 25 25 25 26 25 23 25 24 26 28 29 29 27 24 25 24 24 24 24 23 23 24
12 12 13 14 15 15 16 17 18 18 17 17 15 15 20 23 23 24 25 25 25 25 26 25 26 23 21 21 21 24 26 27 28 30 28 26 25 25 25 24 24 24 24 24 24
11 12 13 14 15 15 16 16 16 17 17 16 18 17 21 22 23 24 24 24 25 25 22 24 21 20 21 22 25 26 26 26 27 28 26 26 25 25 25 24 24 24 24 24 24
11 12 13 15 15 15 15 15 15 15 14 16 18 18 20 19 18 24 24 23 24 21 22 22 20 21 23 24 24 25 25 25 27 28 25 26 24 26 26 25 25 24 24 24 24
11 12 12 15 15 15 14 14 15 15 14 15 17 18 21 21 19 22 23 23 22 21 21 20 21 24 25 24 25 24 24 25 27 26 24 25 23 23 25 26 26 25 25 25 25
11 11 12 14 15 15 14 15 15 15 9 14 18 21 22 22 20 24 23 23 22 21 21 21 23 24 24 24 24 22 26 27 27 25 24 25 21 22 22 23 23 25 25 25 25
11 11 11 10 13 13 14 15 15 15 14 22 23 24 24 23 24 24 24 22 21 22 21 21 22 23 24 25 25 25 27 27 27 24 24 23 22 22 21 23 23 25 26 25 25
11 12 11 12 12 13 14 14 15 12 14 21 21 20 21 23 24 24 23 24 24 21 22 21 26 24 25 26 26 27 27 27 26 21 21 22 23 21 20 23 26 25 26 26 26
12 12 12 13 13 13 13 14 11 11 17 18 17 17 17 20 21 22 22 20 19 20 20 22 23 24 26 24 25 25 22 22 22 21 22 23 23 24 25 28 25 25 27 27 26
13 12 13 13 13 13 13 10 12 15 15 17 17 17 18 16 17 18 18 20 20 20 19 19 21 23 25 24 23 22 21 19 22 21 23 26 24 26 26 28 27 27 27 28 27
13 13 13 14 13 13 13 8 11 14 16 15 15 14 14 15 15 15 15 17 20 19 19 18 20 24 25 25 24 24 22 23 23 23 23 23 26 27 26 26 25 26 28 28 28
11 12 13 14 13 13 9 9 12 15 15 14 13 13 12 13 13 13 14 18 16 18 17 18 19 22 25 26 25 24 24 24 19 23 23 24 26 24 24 25 25 27 27 29 29
10 10 13 13 13 13 7 8 13 15 15 14 13 12 11 11 11 12 14 17 16 17 17 17 17 23 24 23 23 23 23 23 20 20 21 22 24 23 25 25 25 27 29 29 29
8 6 13 13 12 9 8 13 14 13 14 12 12 11 11 10 10 11 13 14 15 14 14 16 15 17 20 23 25 24 23 21 22 22 20 21 23 26 26 27 28 28 29 30 29
6 7 13 13 8 7 9 12 13 12 11 11 11 11 10 10 9 10 13 14 14 13 13 14 13 14 19 21 20 22 23 22 20 18 21 22 22 27 26 27 28 27 29 30 30
6 4 11 11 10 8 8 10 11 13 12 12 11 11 10 9 10 9 10 13 12 12 14 13 12 14 14 17 18 19 20 21 22 18 20 22 26 28 27 27 27 29 31 32 33
6 6 6 3 5 6 7 8 9 10 13 12 10 11 10 8 7 8 10 10 11 12 10 9 14 16 15 17 19 20 21 22 22 23 24 24 25 25 24 26 28 31 31 30 30
5 5 6 5 7 6 6 7 8 9 9 10 10 10 10 8 7 7 7 7 8 9 9 7 12 15 16 19 20 20 22 22 23 24 24 26 26 25 28 28 29 30 32 31 31
4 5 5 5 4 5 5 7 8 7 9 10 10 8 8 8 7 7 7 6 6 6 8 7 9 12 14 16 18 20 21 23 23 25 24 24 25 26 27 25 28 30 30 30 29
Height
1541 1538 1534 1531 1528 1525 1522 1519 1515 1512 1509 1506 1503 1500 1498 1495 1494 1492 1490 1491 1494 1496 1498 1501 1502 1504 1505 1504 1505 1506 1514 1514 1503 1499 1494 1494 1499 1506 1507 1509 1514 1514 1515 1523 1531
1540 1536 1533 1530 1526 1522 1519 1516 1514 1510 1507 1504 1501 1498 1495 1493 1490 1486 1485 1484 1487 1491 1493 1496 1499 1503 1503 1500 1500 1503 1512 1501 1484 1484 1485 1489 1493 1500 1510 1514 1516 1516 1522 1528 1532
1539 1535 1531 1528 1524 1520 1517 1513 1510 1507 1504 1501 1498 1495 1493 1490 1486 1480 1481 1481 1482 1486 1492 1495 1498 1501 1502 1496 1492 1492 1495 1483 1480 1482 1483 1489 1496 1498 1507 1516 1510 1514 1521 1527 1532
1537 1533 1529 1526 1522 1517 1514 1510 1507 1503 1500 1498 1495 1493 1490 1490 1491 1479 1479 1481 1482 1485 1488 1491 1494 1496 1496 1494 1485 1492 1481 1488 1482 1486 1484 1485 1493 1500 1497 1501 1507 1509 1515 1524 1531
1536 1532 1527 1523 1519 1514 1510 1507 1503 1500 1497 1494 1492 1490 1488 1488 1477 1478 1478 1480 1481 1483 1484 1487 1489 1492 1491 1486 1486 1487 1480 1477 1476 1479 1478 1482 1488 1494 1501 1503 1512 1516 1521 1525 1530
1534 1530 1525 1520 1516 1511 1507 1503 1499 1496 1494 1491 1489 1487 1486 1485 1473 1472 1473 1477 1478 1480 1481 1484 1483 1487 1488 1483 1487 1481 1478 1476 1474 1474 1478 1484 1491 1491 1503 1505 1514 1517 1521 1526 1530
1532 1527 1522 1518 1512 1507 1503 1498 1495 1491 1489 1487 1485 1483 1481 1470 1471 1471 1471 1473 1476 1476 1477 1480 1482 1486 1486 1485 1481 1481 1481 1473 1469 1471 1476 1487 1499 1495 1498 1505 1510 1516 1520 1526 1529
1529 1525 1520 1515 1509 1504 1499 1494 1491 1486 1484 1483 1482 1480 1472 1466 1465 1466 1469 1470 1472 1475 1475 1477 1481 1484 1485 1483 1481 1483 1483 1490 1472 1471 1474 1479 1508 1501 1503 1506 1512 1516 1519 1523 1527
1526 1522 1517 1512 1507 1500 1496 1491 1487 1483 1480 1479 1479 1478 1466 1462 1462 1464 1467 1468 1470 1473 1473 1477 1481 1482 1482 1486 1495 1488 1501 1491 1480 1472 1472 1478 1503 1500 1503 1506 1509 1513 1518 1521 1526
1524 1519 1514 1509 1504 1499 1494 1489 1483 1480 1479 1477 1476 1479 1463 1460 1460 1460 1462 1466 1468 1470 1472 1475 1477 1479 1482 1490 1510 1497 1493 1486 1485 1471 1474 1480 1491 1496 1501 1502 1505 1510 1515 1519 1522
1521 1515 1510 1506 1502 1498 1494 1487 1485 1482 1479 1477 1472 1468 1458 1459 1459 1458 1460 1462 1465 1468 1472 1470 1480 1489 1482 1483 1481 1481 1486 1491 1479 1469 1477 1482 1488 1493 1497 1502 1505 1508 1513 1516 1518
1518 1512 1506 1503 1500 1497 1496 1494 1497 1498 1473 1466 1461 1460 1453 1460 1462 1455 1458 1462 1461 1468 1468 1475 1484 1475 1476 1477 1480 1482 1489 1493 1481 1471 1477 1485 1497 1496 1498 1500 1500 1504 1506 1511 1515
1515 1510 1504 1500 1498 1497 1496 1495 1495 1491 1484 1457 1453 1451 1447 1452 1453 1450 1454 1457 1460 1464 1468 1477 1472 1470 1475 1477 1481 1482 1489 1490 1489 1479 1483 1491 1506 1501 1497 1497 1503 1501 1500 1505 1508
1513 1508 1504 1497 1499 1495 1494 1494 1492 1490 1496 1466 1450 1444 1444 1448 1448 1442 1445 1454 1456 1461 1465 1470 1463 1467 1471 1475 1478 1493 1472 1478 1482 1491 1507 1490 1535 1507 1499 1496 1494 1500 1500 1500 1502
1511 1506 1502 1501 1496 1494 1495 1492 1489 1489 1504 1453 1448 1444 1442 1443 1441 1437 1440 1447 1454 1456 1460 1464 1459 1464 1469 1467 1468 1475 1469 1474 1475 1489 1494 1502 1515 1502 1497 1494 1485 1488 1494 1495 1495
1508 1504 1499 1499 1495 1494 1492 1489 1489 1500 1500 1459 1452 1453 1449 1441 1439 1438 1440 1445 1449 1454 1453 1455 1451 1453 1456 1456 1458 1464 1467 1471 1475 1494 1520 1500 1502 1508 1499 1479 1468 1476 1484 1487 1489
1505 1501 1497 1495 1495 1493 1491 1489 1501 1506 1468 1472 1467 1459 1456 1449 1446 1440 1440 1446 1456 1466 1466 1455 1453 1449 1450 1459 1456 1462 1482 1510 1513 1518 1514 1489 1499 1480 1463 1453 1461 1465 1470 1476 1483
1501 1496 1494 1494 1494 1493 1490 1493 1501 1480 1480 1472 1469 1460 1461 1462 1457 1453 1451 1453 1449 1454 1466 1471 1473 1448 1440 1450 1461 1465 1476 1510 1517 1520 1506 1474 1490 1468 1451 1446 1451 1463 1466 1471 1476
1499 1494 1493 1494 1494 1493 1494 1507 1499 1487 1480 1478 1471 1474 1476 1469 1468 1461 1463 1461 1454 1454 1468 1469 1462 1437 1437 1441 1448 1457 1474 1463 1485 1485 1499 1487 1466 1449 1443 1447 1454 1455 1456 1459 1463
1497 1494 1493 1494 1495 1495 1498 1504 1493 1486 1482 1480 1488 1486 1489 1482 1479 1475 1470 1462 1468 1461 1462 1457 1463 1438 1433 1436 1437 1447 1448 1475 1488 1503 1509 1487 1472 1471 1452 1448 1444 1445 1445 1444 1452
1498 1495 1495 1496 1495 1496 1505 1501 1489 1487 1484 1486 1489 1489 1492 1493 1488 1483 1478 1468 1470 1464 1461 1457 1455 1438 1436 1443 1447 1451 1455 1458 1468 1480 1500 1503 1481 1443 1437 1435 1437 1438 1443 1443 1447
1499 1499 1495 1495 1496 1496 1499 1492 1489 1487 1485 1488 1489 1493 1496 1494 1494 1489 1482 1479 1477 1479 1475 1462 1462 1462 1445 1430 1429 1437 1446 1452 1474 1481 1478 1480 1475 1424 1425 1430 1435 1438 1440 1439 1441
1502 1498 1495 1494 1503 1502 1496 1492 1490 1487 1489 1492 1495 1495 1495 1498 1501 1491 1484 1479 1477 1480 1481 1473 1474 1480 1452 1439 1436 1442 1440 1445 1451 1463 1474 1484 1477 1424 1426 1422 1423 1431 1438 1437 1442
1507 1506 1497 1496 1500 1501 1501 1496 1494 1490 1490 1491 1494 1495 1497 1499 1497 1494 1490 1483 1480 1479 1479 1473 1475 1475 1485 1468 1461 1459 1447 1444 1445 1472 1470 1466 1450 1433 1428 1425 1422 1423 1429 1432 1435
1511 1510 1509 1509 1503 1503 1502 1500 1498 1495 1491 1491 1494 1494 1497 1501 1500 1496 1490 1486 1482 1479 1481 1481 1475 1465 1463 1456 1451 1449 1445 1438 1446 1439 1447 1448 1446 1435 1429 1420 1420 1421 1425 1430 1433
1513 1513 1511 1509 1506 1504 1503 1501 1500 1498 1494 1492 1493 1492 1493 1498 1498 1498 1497 1495 1491 1481 1485 1483 1475 1462 1463 1447 1445 1444 1435 1432 1430 1429 1431 1429 1436 1420 1418 1418 1422 1423 1424 1429 1429
1513 1513 1512 1510 1508 1505 1509 1506 1503 1502 1493 1492 1492 1495 1494 1491 1492 1493 1491 1492 1493 1494 1491 1491 1483 1471 1470 1452 1446 1447 1434 1426 1424 1418 1422 1437 1426 1417 1420 1420 1415 1417 1422 1426 1436
Wind_Speed
20 20 21 21 21 21 21 21 21 20 20 21 20 19 19 20 19 21 22 15 11 15 16 11 8 9 11 10 18 6 1 6 8 6 5 22 11 18 15 27 13 12 22 41 35
21 22 23 23 22 23 23 22 22 21 21 21 20 19 18 20 20 22 15 12 17 17 19 16 11 11 9 8 8 9 4 7 11 11 11 25 28 24 11 25 11 20 31 35 32
22 23 24 24 25 25 24 23 23 22 22 22 21 19 18 18 19 2 5 3 15 19 15 12 10 9 17 17 11 8 11 9 7 6 26 22 25 20 27 9 30 36 42 36 38
23 24 25 26 27 27 26 25 23 22 22 22 20 19 17 13 4 5 4 5 4 15 19 14 13 5 5 8 16 9 19 13 14 5 20 23 25 15 28 17 37 44 51 42 41
23 25 26 27 28 28 28 26 24 22 22 23 21 20 15 7 21 14 15 11 3 8 20 18 15 9 5 5 7 9 16 24 28 22 28 27 24 25 17 33 37 43 41 41 35
25 26 27 28 29 29 28 26 24 22 21 22 21 19 12 7 7 3 5 7 7 9 15 22 12 17 7 9 5 12 22 18 13 29 20 16 17 15 28 40 38 39 38 37 37
26 26 27 27 28 28 27 24 21 22 21 20 19 17 16 26 11 5 2 10 6 9 11 21 21 10 0 7 13 13 8 10 10 14 21 26 6 16 39 42 42 36 38 33 39
25 26 27 26 27 28 25 21 21 22 19 16 15 15 14 14 10 17 13 12 11 9 9 10 19 19 14 13 12 6 2 3 3 10 18 14 9 20 38 39 36 34 35 35 37
26 26 26 25 25 27 19 20 18 16 13 12 11 9 15 8 9 7 14 13 8 10 12 12 13 20 18 2 5 2 4 4 6 12 18 5 11 23 37 36 34 34 33 34 37
26 27 27 25 24 21 17 19 13 3 8 7 8 6 14 6 4 5 7 17 13 11 14 13 8 3 2 4 6 5 4 2 4 4 3 11 14 22 35 35 35 34 33 33 38
26 27 27 25 22 13 19 17 23 4 27 20 18 14 24 15 16 9 5 10 16 13 7 8 3 6 9 5 5 5 3 3 5 5 6 12 19 23 30 30 29 31 33 34 38
26 26 27 22 19 7 15 16 16 17 18 25 34 33 40 35 17 19 12 3 7 7 3 2 7 8 7 6 7 9 6 6 7 3 5 12 7 7 17 23 33 33 34 36 38
26 26 26 22 10 5 6 12 8 16 7 17 12 14 23 17 20 29 16 6 4 6 6 7 8 8 9 10 10 9 7 4 6 2 7 7 5 2 4 7 17 31 40 38 42
25 24 24 26 5 11 2 12 7 19 4 8 5 6 7 9 6 22 25 19 5 10 6 6 12 9 15 14 9 9 7 9 8 4 5 4 5 5 3 6 3 15 29 38 42
24 22 23 18 20 12 10 13 8 6 3 4 4 5 4 11 0 3 21 19 7 7 7 9 10 13 13 18 13 9 9 9 8 5 6 1 4 6 4 7 10 15 27 37 45
24 22 24 15 15 7 12 13 6 5 5 5 6 8 7 6 4 3 10 14 9 6 5 8 7 9 13 16 13 6 5 1 3 5 3 8 7 6 6 15 17 18 28 42 42
25 23 16 9 2 9 14 12 4 3 7 9 7 9 8 7 8 6 4 8 6 5 5 2 13 5 6 8 10 5 6 2 2 1 7 10 4 7 14 14 21 20 33 44 42
24 22 11 2 7 10 15 5 2 3 4 6 7 9 6 14 8 8 7 3 3 4 1 6 7 8 5 9 8 8 10 6 7 4 6 5 6 10 24 32 31 31 32 36 40
23 13 5 10 9 8 6 3 4 4 6 8 6 7 7 14 10 12 6 4 7 2 5 5 8 6 6 7 9 4 3 10 6 2 3 4 4 6 6 21 18 30 36 39 44
25 9 8 9 5 5 5 4 3 5 6 6 6 5 7 10 9 11 5 3 12 14 17 6 5 7 11 3 6 9 6 2 3 6 5 4 3 5 6 18 21 21 29 39 45
14 6 8 4 4 4 3 6 4 11 13 6 5 4 6 6 5 6 6 6 22 16 19 4 4 16 5 6 5 1 3 2 4 6 6 2 5 7 19 22 25 21 28 28 42
9 2 7 3 2 0 2 2 10 9 8 8 6 7 4 7 5 5 4 8 25 23 10 5 1 4 9 6 4 5 7 8 6 5 2 5 7 8 13 15 19 16 26 44 43
14 7 5 1 3 3 6 4 6 7 6 4 5 5 4 4 5 4 4 21 23 17 10 7 4 5 8 5 7 3 3 4 4 5 7 6 6 2 4 8 28 24 31 31 17
7 4 6 7 9 4 5 4 6 8 4 4 3 2 4 4 2 7 10 9 26 21 22 14 3 4 5 4 4 6 13 7 7 5 6 6 5 1 3 8 6 20 28 30 29
5 3 7 4 6 9 5 5 5 5 3 2 1 2 2 3 5 5 5 9 13 11 15 6 4 2 8 10 8 10 12 13 3 10 10 8 8 9 8 9 11 16 11 17 36
5 5 7 11 11 7 6 5 5 13 3 4 4 4 1 4 6 13 5 4 5 5 8 7 4 0 4 4 6 11 11 9 9 7 4 8 5 7 12 9 12 7 16 12 8
1 1 4 6 7 3 3 6 10 9 6 11 1 3 3 6 5 12 14 13 11 6 6 5 5 4 3 9 9 4 6 4 5 6 9 8 9 4 3 3 13 9 7 8 10
Wind_Direction
359 355 352 350 348 346 345 344 341 337 334 332 329 318 312 307 300 292 279 281 254 226 227 202 192 187 191 229 221 172 84 235 256 252 186 150 136 156 138 140 155 184 171 154 151
355 352 349 346 343 340 338 337 338 334 332 331 331 324 314 310 304 288 298 258 229 219 196 201 199 171 207 239 216 173 175 252 221 203 161 155 151 145 130 152 110 120 147 152 156
353 351 348 345 342 338 334 331 330 330 328 328 329 327 319 317 315 322 60 54 210 201 195 196 203 214 225 257 235 213 226 250 275 168 151 146 147 145 142 161 152 146 156 160 162
348 346 344 341 338 335 332 329 324 321 323 323 324 325 320 313 292 167 148 2 27 207 205 211 218 210 217 211 252 255 262 226 267 215 161 154 155 152 166 176 163 160 160 163 173
344 342 339 336 334 330 327 325 321 316 314 315 317 319 316 290 265 263 256 291 268 203 212 207 220 203 219 228 264 248 271 281 292 222 174 151 160 163 168 155 159 157 162 167 173
340 338 336 333 331 327 324 320 318 313 307 305 309 312 305 263 323 284 238 222 265 248 218 209 218 214 280 255 196 273 292 294 273 177 152 131 131 118 151 154 157 162 168 172 185
336 335 333 330 328 325 323 320 316 307 298 296 298 300 283 264 281 228 268 219 258 253 225 217 215 222 126 301 296 280 311 326 200 153 138 125 91 146 156 157 161 167 171 179 186
332 332 332 331 331 328 327 326 316 302 301 293 291 290 265 283 264 225 234 217 242 249 247 213 207 231 242 265 313 348 349 320 220 170 148 121 174 151 158 158 165 170 175 181 182
332 332 332 333 334 332 338 337 329 308 303 293 281 275 269 265 239 240 214 233 216 227 259 243 225 232 248 221 357 5 247 252 321 192 155 126 135 161 166 162 166 170 175 183 189
333 333 332 335 337 334 350 346 345 0 353 315 243 288 260 249 187 357 242 223 228 233 243 238 215 171 29 127 209 205 225 327 239 175 129 126 147 168 172 167 170 176 181 186 194
335 335 332 337 339 340 356 17 16 336 313 275 261 253 273 281 281 253 315 226 224 230 202 242 137 207 226 174 231 275 275 338 295 181 102 156 153 171 175 175 173 179 185 193 199
336 336 332 337 337 338 21 34 12 332 301 287 277 263 257 265 295 254 253 300 202 207 153 254 212 214 224 247 234 250 263 271 315 53 89 149 130 138 179 185 179 184 189 195 201
338 336 332 335 339 328 7 17 351 347 289 299 277 252 254 234 229 250 240 233 238 201 180 189 224 198 222 238 242 246 213 203 211 113 66 89 1 30 161 123 206 195 194 195 199
336 334 334 332 348 327 333 337 334 351 17 278 247 244 203 199 230 242 241 225 222 203 186 223 225 205 212 236 199 245 209 226 240 138 201 173 220 255 277 290 180 237 201 199 201
333 333 332 333 319 331 333 319 348 20 352 323 330 316 213 176 266 277 213 185 204 201 143 225 174 205 219 225 217 249 191 214 210 139 121 14 103 262 286 256 246 235 218 206 205
331 334 327 325 318 12 353 348 355 49 259 325 18 331 8 278 247 279 174 189 206 227 253 212 247 194 215 232 238 220 241 292 163 115 146 210 164 245 215 226 226 240 235 212 207
334 335 325 317 46 23 357 350 57 160 329 1 341 329 335 310 30 349 161 156 178 141 240 285 250 233 212 213 247 188 96 259 334 154 210 184 178 226 226 224 223 222 214 206 208
338 337 323 128 80 25 2 46 193 291 22 348 323 316 46 17 10 14 10 343 318 119 358 185 261 214 217 181 201 199 168 161 188 174 205 217 218 238 203 221 224 219 218 205 207
343 348 95 105 72 27 350 53 225 359 338 343 349 30 343 1 358 9 14 299 23 188 185 191 245 269 224 208 156 235 143 192 179 165 96 208 282 296 212 213 196 204 204 202 205
343 0 114 111 62 360 69 255 282 352 18 26 41 39 1 347 10 8 344 356 354 10 3 285 251 222 263 269 237 169 188 129 344 180 246 259 217 233 187 198 199 218 195 202 203
348 349 145 136 274 308 155 234 291 20 40 40 19 357 32 2 316 334 315 328 17 340 341 306 220 255 139 181 227 2 185 114 134 151 181 221 268 216 195 197 200 217 205 203 204
7 352 134 204 14 243 169 283 13 1 46 40 71 48 48 2 348 333 290 344 354 359 330 309 283 276 227 224 191 151 229 176 178 259 208 162 259 288 167 174 202 232 196 201 197
346 304 12 243 41 329 319 4 4 14 48 52 37 44 29 13 344 303 335 343 342 356 4 325 338 350 343 356 16 12 332 203 148 113 207 147 259 288 315 212 190 170 207 219 196
358 350 336 30 49 29 6 349 353 26 88 119 154 46 22 339 219 291 308 312 335 336 340 328 241 151 230 242 220 289 308 308 192 140 169 213 204 276 196 145 191 179 208 224 235
20 330 12 331 341 331 336 356 355 342 13 221 207 193 131 283 315 283 328 331 334 329 353 28 246 265 275 262 267 270 285 292 250 226 183 203 195 238 214 172 178 122 92 220 236
5 5 346 307 316 338 0 10 7 342 281 259 166 241 207 217 209 286 327 30 278 324 4 349 273 120 286 271 284 273 274 276 281 209 170 150 227 250 188 192 105 79 114 58 35
1 301 348 304 333 26 344 354 340 350 317 29 165 118 298 262 299 288 272 262 270 293 337 296 344 355 308 314 324 324 300 259 285 249 173 177 211 179 55 222 102 71 77 32 11